{"data":{"norad_id":65688,"epoch":"2026-05-24T23:15:34.357824Z","epoch_age_seconds":81650,"freshness":"FRESH","line1":"1 65688U 25212N   26144.96914766  .00018040  00000+0  61977-3 0  9995","line2":"2 65688  53.1620 351.2642 0000837  63.4129 296.6957 15.30197584 38927","mean_motion":15.30197584,"eccentricity":8.37e-5,"inclination_deg":53.162,"raan_deg":351.2642,"arg_perigee_deg":63.4129,"mean_anomaly_deg":296.6957,"bstar":0.00061977,"rev_number":3892,"period_min":94.105494287593,"perigee_km":474.64865699733,"apogee_km":475.79590934133,"semimajor_km":6853.3592831693,"source":"CELESTRAK","updated_at":"2026-05-25T13:38:20.896170Z"}}